Time,TemperatureF,DewpointF,PressureIn,WindDirection,WindDirectionDegrees,WindSpeedMPH,WindSpeedGustMPH,Humidity,HourlyPrecipIn,Conditions,Clouds,dailyrainin,SoftwareType,DateUTC
2013-10-04 00:29:00,71.0,64.0,29.80,SSE,148,3.0,8.0,79,0.00,,,0.04,,2013-10-04 05:29:00,
2013-10-04 00:58:00,71.0,65.0,29.81,SW,227,1.0,8.0,80,0.00,,,0.04,,2013-10-04 05:58:00,
2013-10-04 01:17:00,71.0,65.0,29.81,SSE,165,0.0,6.0,80,0.00,,,0.04,,2013-10-04 06:17:00,
2013-10-04 01:26:00,70.0,64.0,29.82,SSE,164,1.0,11.0,81,0.00,,,0.04,,2013-10-04 06:26:00,
2013-10-04 01:57:00,70.0,64.0,29.82,SSE,159,0.0,6.0,82,0.00,,,0.04,,2013-10-04 06:57:00,
2013-10-04 02:16:00,69.0,64.0,29.83,South,172,0.0,6.0,84,0.00,,,0.04,,2013-10-04 07:16:00,
2013-10-04 02:25:00,69.0,64.0,29.83,SSE,152,1.0,8.0,84,0.00,,,0.04,,2013-10-04 07:25:00,
2013-10-04 02:57:00,69.0,64.0,29.82,SSE,150,0.0,8.0,85,0.00,,,0.04,,2013-10-04 07:57:00,
2013-10-04 03:25:00,68.0,64.0,29.82,SE,143,0.0,8.0,86,0.00,,,0.04,,2013-10-04 08:25:00,
2013-10-04 03:57:00,68.0,64.0,29.82,SSE,152,0.0,10.0,87,0.00,,,0.04,,2013-10-04 08:57:00,
2013-10-04 04:15:00,68.0,64.0,29.81,SE,125,1.0,9.0,87,0.00,,,0.04,,2013-10-04 09:15:00,
2013-10-04 04:25:00,68.0,64.0,29.80,SE,145,0.0,5.0,88,0.00,,,0.04,,2013-10-04 09:25:00,
2013-10-04 05:00:00,68.0,64.0,29.80,SW,234,1.0,11.0,88,0.00,,,0.04,,2013-10-04 10:00:00,
2013-10-04 05:19:00,68.0,65.0,29.80,SSE,152,0.0,8.0,89,0.00,,,0.04,,2013-10-04 10:19:00,
2013-10-04 05:28:00,68.0,65.0,29.80,SE,146,1.0,9.0,89,0.00,,,0.04,,2013-10-04 10:28:00,
2013-10-04 06:00:00,68.0,65.0,29.81,SSE,149,1.0,7.0,89,0.00,,,0.04,,2013-10-04 11:00:00,
2013-10-04 06:18:00,68.0,65.0,29.81,SE,137,0.0,8.0,89,0.00,,,0.04,,2013-10-04 11:18:00,
2013-10-04 06:28:00,68.0,65.0,29.82,SE,132,2.0,9.0,89,0.00,,,0.04,,2013-10-04 11:28:00,
2013-10-04 06:59:00,68.0,65.0,29.82,SE,137,0.0,8.0,89,0.00,,,0.04,,2013-10-04 11:59:00,
2013-10-04 07:18:00,67.0,64.0,29.82,SE,138,0.0,9.0,90,0.00,,,0.04,,2013-10-04 12:18:00,
2013-10-04 07:28:00,67.0,64.0,29.81,SSE,161,0.0,5.0,90,0.00,,,0.04,,2013-10-04 12:28:00,
2013-10-04 07:59:00,67.0,64.0,29.82,SE,144,0.0,3.0,91,0.00,,,0.04,,2013-10-04 12:59:00,
2013-10-04 08:18:00,68.0,65.0,29.82,ESE,118,1.0,9.0,91,0.00,,,0.04,,2013-10-04 13:18:00,
2013-10-04 08:27:00,68.0,65.0,29.82,SSE,161,2.0,12.0,91,0.00,,,0.04,,2013-10-04 13:27:00,
2013-10-04 08:47:00,69.0,66.0,29.81,ESE,117,1.0,16.0,90,0.00,,,0.04,,2013-10-04 13:47:00,
2013-10-04 08:59:00,69.0,66.0,29.81,South,174,1.0,10.0,89,0.00,,,0.04,,2013-10-04 13:59:00,
2013-10-04 09:18:00,70.0,66.0,29.82,SSE,164,2.0,9.0,87,0.00,,,0.04,,2013-10-04 14:18:00,
2013-10-04 09:27:00,71.0,67.0,29.82,South,177,2.0,16.0,86,0.00,,,0.04,,2013-10-04 14:27:00,
2013-10-04 09:47:00,72.0,67.0,29.82,SSE,167,1.0,12.0,84,0.00,,,0.04,,2013-10-04 14:47:00,
2013-10-04 09:59:00,72.0,67.0,29.81,SSE,151,3.0,10.0,84,0.00,,,0.04,,2013-10-04 14:59:00,
2013-10-04 10:18:00,74.0,68.0,29.81,SE,143,0.0,12.0,82,0.00,,,0.04,,2013-10-04 15:18:00,
2013-10-04 10:28:00,75.0,68.0,29.81,East,93,4.0,18.0,79,0.00,,,0.04,,2013-10-04 15:28:00,
2013-10-04 10:48:00,75.0,68.0,29.81,SSW,192,3.0,14.0,79,0.00,,,0.04,,2013-10-04 15:48:00,
2013-10-04 11:00:00,75.0,68.0,29.81,ESE,121,2.0,16.0,79,0.00,,,0.04,,2013-10-04 16:00:00,
2013-10-04 11:19:00,76.0,68.0,29.80,SE,145,1.0,11.0,77,0.00,,,0.04,,2013-10-04 16:19:00,
2013-10-04 11:28:00,76.0,68.0,29.80,NE,43,1.0,10.0,76,0.00,,,0.01,,2013-10-04 16:28:00,
2013-10-04 11:48:00,77.0,69.0,29.80,ESE,107,4.0,13.0,76,0.00,,,0.01,,2013-10-04 16:48:00,
2013-10-04 12:00:00,77.0,68.0,29.80,SSE,159,1.0,13.0,74,0.00,,,0.01,,2013-10-04 17:00:00,
2013-10-04 12:28:00,78.0,69.0,29.80,SSE,168,3.0,13.0,74,0.00,,,0.00,,2013-10-04 17:28:00,
2013-10-04 13:01:00,81.0,70.0,29.79,SSW,208,2.0,13.0,69,0.00,,,0.00,,2013-10-04 18:01:00,
2013-10-04 13:19:00,82.0,70.0,29.79,South,176,1.0,13.0,67,0.00,,,0.00,,2013-10-04 18:19:00,
2013-10-04 13:29:00,84.0,70.0,29.79,ESE,121,0.0,10.0,63,0.00,,,0.00,,2013-10-04 18:29:00,
2013-10-04 13:49:00,83.0,68.0,29.78,South,188,3.0,14.0,61,0.00,,,0.00,,2013-10-04 18:49:00,
2013-10-04 13:56:00,82.0,69.0,29.78,East,84,2.0,19.0,64,0.00,,,0.00,,2013-10-04 18:56:00,
2013-10-04 14:12:00,84.0,69.0,29.77,SW,233,4.0,17.0,61,0.00,,,0.00,,2013-10-04 19:12:00,
2013-10-04 14:22:00,84.0,68.0,29.77,West,261,2.0,12.0,59,0.00,,,0.00,,2013-10-04 19:22:00,
2013-10-04 14:43:00,85.0,69.0,29.77,ESE,123,4.0,12.0,58,0.00,,,0.00,,2013-10-04 19:43:00,
2013-10-04 14:52:00,84.0,68.0,29.77,South,172,0.0,12.0,59,0.00,,,0.00,,2013-10-04 19:52:00,
2013-10-04 15:11:00,84.0,68.0,29.77,SSE,161,1.0,14.0,58,0.00,,,0.00,,2013-10-04 20:11:00,
2013-10-04 15:22:00,83.0,68.0,29.76,SE,146,2.0,11.0,61,0.00,,,0.00,,2013-10-04 20:22:00,
2013-10-04 15:53:00,86.0,67.0,29.76,SSE,149,3.0,13.0,54,0.00,,,0.00,,2013-10-04 20:53:00,
2013-10-04 16:12:00,86.0,66.0,29.76,East,94,4.0,18.0,52,0.00,,,0.00,,2013-10-04 21:12:00,
2013-10-04 16:22:00,86.0,67.0,29.76,SW,227,2.0,14.0,53,0.00,,,0.00,,2013-10-04 21:22:00,
2013-10-04 16:54:00,86.0,66.0,29.75,SE,140,3.0,15.0,52,0.00,,,0.00,,2013-10-04 21:54:00,
2013-10-04 17:23:00,85.0,67.0,29.75,South,180,2.0,12.0,55,0.00,,,0.00,,2013-10-04 22:23:00,
2013-10-04 17:42:00,85.0,66.0,29.75,WSW,249,2.0,11.0,53,0.00,,,0.00,,2013-10-04 22:42:00,
2013-10-04 17:52:00,85.0,67.0,29.75,SSE,149,1.0,9.0,55,0.00,,,0.00,,2013-10-04 22:52:00,
2013-10-04 18:22:00,82.0,66.0,29.75,SE,138,1.0,13.0,59,0.00,,,0.00,,2013-10-04 23:22:00,
2013-10-04 18:53:00,80.0,65.0,29.78,East,87,1.0,9.0,61,0.00,,,0.00,,2013-10-04 23:53:00,
2013-10-04 19:12:00,80.0,66.0,29.79,SSE,159,0.0,8.0,62,0.00,,,0.00,,2013-10-05 00:12:00,
2013-10-04 19:22:00,79.0,65.0,29.79,SSE,165,0.0,6.0,63,0.00,,,0.00,,2013-10-05 00:22:00,
2013-10-04 19:42:00,79.0,66.0,29.78,SSW,202,0.0,6.0,64,0.00,,,0.00,,2013-10-05 00:42:00,
2013-10-04 19:53:00,78.0,65.0,29.79,SSE,156,0.0,8.0,65,0.00,,,0.00,,2013-10-05 00:53:00,
2013-10-04 20:11:00,78.0,66.0,29.80,SE,141,0.0,9.0,66,0.00,,,0.00,,2013-10-05 01:11:00,
2013-10-04 20:21:00,77.0,65.0,29.81,SE,133,0.0,8.0,67,0.00,,,0.00,,2013-10-05 01:21:00,
2013-10-04 20:43:00,77.0,65.0,29.82,South,169,0.0,6.0,67,0.00,,,0.00,,2013-10-05 01:43:00,
2013-10-04 20:52:00,77.0,66.0,29.82,SE,132,0.0,6.0,68,0.00,,,0.00,,2013-10-05 01:52:00,
2013-10-04 21:11:00,76.0,65.0,29.83,SE,145,1.0,8.0,69,0.00,,,0.00,,2013-10-05 02:11:00,
2013-10-04 21:22:00,76.0,65.0,29.82,South,171,0.0,9.0,69,0.00,,,0.00,,2013-10-05 02:22:00,
2013-10-04 21:42:00,76.0,65.0,29.83,SW,220,1.0,12.0,69,0.00,,,0.00,,2013-10-05 02:42:00,
2013-10-04 21:52:00,76.0,65.0,29.84,SSE,155,1.0,7.0,70,0.00,,,0.00,,2013-10-05 02:52:00,
2013-10-04 22:23:00,66.0,61.0,29.88,WNW,291,0.0,1.0,84,0.35,,,0.35,,2013-10-05 03:23:00,
2013-10-04 22:45:00,65.0,62.0,29.87,WSW,256,0.0,4.0,89,0.38,,,0.38,,2013-10-05 03:45:00,
2013-10-04 22:55:00,65.0,62.0,29.89,WSW,257,0.0,5.0,91,0.38,,,0.38,,2013-10-05 03:55:00,
2013-10-04 23:14:00,65.0,62.0,29.90,West,264,0.0,6.0,91,0.20,,,0.42,,2013-10-05 04:14:00,
2013-10-04 23:24:00,65.0,63.0,29.90,West,271,0.0,5.0,92,0.20,,,0.55,,2013-10-05 04:24:00,
2013-10-04 23:43:00,64.0,62.0,29.91,WNW,299,0.0,7.0,92,0.18,,,0.56,,2013-10-05 04:43:00,
2013-10-04 23:53:00,64.0,62.0,29.91,WNW,301,0.0,7.0,92,0.20,,,0.57,,2013-10-05 04:53:00,